Alamogordo, NM

1:46 AM MDT on April 30, 2017 (GMT -0600)
Alamogordo-White Sands Regional

Weather History for KALM - August, 2014

Change the Weather History Date:

Saturday, August 30, 2014

  Actual Average Record
Temperature  
Mean Temperature 78 °F -  
Max Temperature 93 °F 89 °F 100 °F (1962)
Min Temperature 62 °F 62 °F 52 °F (1964)
Cooling Degree Days 12    
Growing Degree Days 28 (Base 50)    
Moisture  
Dew Point 46 °F    
Average Humidity 33    
Maximum Humidity 59    
Minimum Humidity 16    
Precipitation  
Precipitation 0.00 in - - ()
Sea Level Pressure  
Sea Level Pressure 30.06 in    
Wind  
Wind Speed 6 mph (SSE)    
Max Wind Speed 13 mph    
Max Gust Speed 18 mph    
Visibility 10 miles    
Events      
Averages and records for this station are not official NWS values.
T = Trace of Precipitation, MM = Missing Value Source: NWS Daily Summary

Daily Weather History Graph

Daily Weather History Graph

Search for Another Location

Airport or City:

Trip Planner

Search our weather history database for the weather conditions in past years. The results will help you decide how hot, cold, wet, or windy it might be!

Date:

Astronomy

Aug. 30, 2014 Rise Set
Actual Time 6:37 AM MDT 7:31 PM MDT
Civil Twilight 6:12 AM MDT 7:56 PM MDT
Nautical Twilight 5:42 AM MDT 8:26 PM MDT
Astronomical Twilight 5:11 AM MDT 8:56 PM MDT
Moon 11:10 AM MDT 10:25 PM MDT
Length of Visible Light 13h 44m
Length of Day
12h 53m
Waxing Crescent, 23% of the Moon is Illuminated
Aug 30
Waxing Crescent
Sep 2
First Quarter
Sep 8
Full
Sep 15
Last Quarter
Sep 24
New

Hourly Weather History & Observations

Time (MDT) Temp. Heat Index Dew Point Humidity Pressure Visibility Wind Dir Wind Speed Gust Speed Precip Events Conditions
12:15 AM 68.0 °F - 44.6 °F 43% 30.04 in 10.0 mi East 3.5 mph - N/A   Clear
12:35 AM 71.6 °F - 41.0 °F 33% 30.04 in 10.0 mi ENE 5.8 mph - N/A   Clear
12:55 AM 71.6 °F - 42.8 °F 35% 30.04 in 10.0 mi NE 8.1 mph - N/A   Clear
1:15 AM 75.2 °F - 44.6 °F 34% 30.05 in 10.0 mi ENE 8.1 mph - N/A   Clear
1:35 AM 75.2 °F - 44.6 °F 34% 30.05 in 10.0 mi ENE 6.9 mph - N/A   Clear
1:55 AM 69.8 °F - 44.6 °F 40% 30.06 in 10.0 mi West 12.7 mph - N/A   Partly Cloudy
2:15 AM 68.0 °F - 46.4 °F 46% 30.06 in 10.0 mi West 9.2 mph - N/A   Scattered Clouds
2:35 AM 66.2 °F - 46.4 °F 49% 30.07 in 10.0 mi NE 3.5 mph - N/A   Partly Cloudy
2:55 AM 68.0 °F - 46.4 °F 46% 30.07 in 10.0 mi NE 4.6 mph - N/A   Clear
3:15 AM 66.2 °F - 46.4 °F 49% 30.07 in 10.0 mi ENE 5.8 mph - N/A   Clear
3:35 AM 64.4 °F - 46.4 °F 52% 30.07 in 10.0 mi NE 9.2 mph - N/A   Clear
3:55 AM 66.2 °F - 48.2 °F 52% 30.07 in 10.0 mi NNE 8.1 mph - N/A   Partly Cloudy
4:15 AM 68.0 °F - 46.4 °F 46% 30.08 in 10.0 mi NNE 6.9 mph - N/A   Scattered Clouds
4:35 AM 68.0 °F - 46.4 °F 46% 30.09 in 10.0 mi Calm Calm - N/A   Partly Cloudy
4:55 AM 68.0 °F - 46.4 °F 46% 30.09 in 10.0 mi Calm Calm - N/A   Clear
5:15 AM 68.0 °F - 46.4 °F 46% 30.09 in 10.0 mi North 3.5 mph - N/A   Clear
5:35 AM 62.6 °F - 48.2 °F 59% 30.09 in 10.0 mi ENE 4.6 mph - N/A   Scattered Clouds
5:55 AM 62.6 °F - 48.2 °F 59% 30.10 in 10.0 mi East 3.5 mph - N/A   Scattered Clouds
6:15 AM 66.2 °F - 46.4 °F 49% 30.10 in 10.0 mi North 4.6 mph - N/A   Scattered Clouds
6:35 AM 66.2 °F - 48.2 °F 52% 30.10 in 10.0 mi NE 4.6 mph - N/A   Partly Cloudy
6:55 AM 64.4 °F - 48.2 °F 56% 30.10 in 10.0 mi ENE 6.9 mph - N/A   Partly Cloudy
7:15 AM 68.0 °F - 48.2 °F 49% 30.11 in 10.0 mi NNE 4.6 mph - N/A   Partly Cloudy
7:35 AM 71.6 °F - 48.2 °F 43% 30.11 in 10.0 mi NNE 4.6 mph - N/A   Clear
7:55 AM 75.2 °F - 48.2 °F 38% 30.11 in 10.0 mi Calm Calm - N/A   Clear
8:15 AM 77.0 °F - 48.2 °F 36% 30.11 in 10.0 mi North 3.5 mph - N/A   Clear
8:35 AM 78.8 °F - 46.4 °F 32% 30.11 in 10.0 mi Calm Calm - N/A   Clear
8:55 AM 80.6 °F - 50.0 °F 34% 30.12 in 10.0 mi WSW 3.5 mph - N/A   Clear
9:15 AM 80.6 °F - 50.0 °F 34% 30.12 in 10.0 mi West 4.6 mph - N/A   Clear
9:35 AM 80.6 °F - 50.0 °F 34% 30.12 in 10.0 mi West 5.8 mph - N/A   Clear
9:55 AM 80.6 °F - 50.0 °F 34% 30.13 in 10.0 mi West 5.8 mph - N/A   Clear
10:15 AM 82.4 °F - 50.0 °F 32% 30.12 in 10.0 mi Calm Calm - N/A   Clear
10:35 AM 82.4 °F 81.4 °F 53.6 °F 37% 30.12 in 10.0 mi SSE 5.8 mph - N/A   Clear
10:55 AM 84.2 °F 83.0 °F 55.4 °F 37% 30.12 in 10.0 mi SSW 6.9 mph - N/A   Clear
11:15 AM 84.2 °F 83.0 °F 55.4 °F 37% 30.11 in 10.0 mi South 8.1 mph - N/A   Clear
11:35 AM 86.0 °F 84.5 °F 55.4 °F 35% 30.10 in 10.0 mi South 10.4 mph - N/A   Clear
11:55 AM 89.6 °F 87.3 °F 53.6 °F 29% 30.10 in 10.0 mi SSW 11.5 mph - N/A   Clear
12:15 PM 89.6 °F - 50.0 °F 26% 30.09 in 10.0 mi SSW 11.5 mph 18.4 mph N/A   Clear
12:35 PM 89.6 °F - 48.2 °F 24% 30.09 in 10.0 mi South 9.2 mph - N/A   Clear
12:55 PM 91.4 °F - 48.2 °F 23% 30.08 in 10.0 mi SSE 10.4 mph 16.1 mph N/A   Clear
1:15 PM 89.6 °F - 48.2 °F 24% 30.07 in 10.0 mi South 9.2 mph - N/A   Partly Cloudy
2:15 PM 91.4 °F - 42.8 °F 18% 30.05 in 10.0 mi SSW 4.6 mph - N/A   Clear
2:35 PM 93.2 °F - 42.8 °F 17% 30.03 in 10.0 mi South 11.5 mph 17.3 mph N/A   Clear
2:55 PM 93.2 °F - 42.8 °F 17% 30.02 in 10.0 mi WSW 6.9 mph - N/A   Clear
3:15 PM 91.4 °F - 41.0 °F 17% 30.02 in 10.0 mi SW 3.5 mph - N/A   Clear
3:35 PM 93.2 °F - 41.0 °F 16% 30.01 in 10.0 mi SE 6.9 mph - N/A   Partly Cloudy
3:55 PM 93.2 °F - 41.0 °F 16% 30.00 in 10.0 mi SSW 8.1 mph - N/A   Clear
4:15 PM 91.4 °F - 41.0 °F 17% 30.00 in 10.0 mi SW 5.8 mph - N/A   Clear
4:35 PM 93.2 °F - 41.0 °F 16% 29.99 in 10.0 mi NE 5.8 mph - N/A   Clear
4:55 PM 91.4 °F - 41.0 °F 17% 29.99 in 10.0 mi South 10.4 mph - N/A   Clear
5:15 PM 91.4 °F - 41.0 °F 17% 30.00 in 10.0 mi SSE 6.9 mph - N/A   Clear
5:35 PM 93.2 °F - 41.0 °F 16% 29.99 in 10.0 mi SE 5.8 mph - N/A   Clear
5:55 PM 89.6 °F - 39.2 °F 17% 29.99 in 10.0 mi South 11.5 mph - N/A   Clear
6:15 PM 91.4 °F - 39.2 °F 16% 29.99 in 10.0 mi South 11.5 mph - N/A   Clear
6:35 PM 91.4 °F - 39.2 °F 16% 29.99 in 10.0 mi SSW 9.2 mph - N/A   Clear
6:55 PM 89.6 °F - 39.2 °F 17% 29.99 in 10.0 mi SSW 5.8 mph - N/A   Clear
7:35 PM 82.4 °F - 44.6 °F 26% 29.99 in 10.0 mi South 5.8 mph - N/A   Clear
7:55 PM 80.6 °F - 46.4 °F 30% 29.99 in 10.0 mi SSE 6.9 mph - N/A   Clear
8:15 PM 80.6 °F - 44.6 °F 28% 30.00 in 10.0 mi SSE 4.6 mph - N/A   Clear
8:35 PM 77.0 °F - 44.6 °F 32% 30.00 in 10.0 mi SE 6.9 mph - N/A   Clear
8:55 PM 75.2 °F - 44.6 °F 34% 30.01 in 10.0 mi SSE 8.1 mph - N/A   Clear
9:15 PM 75.2 °F - 44.6 °F 34% 30.01 in 10.0 mi SE 8.1 mph - N/A   Clear
9:35 PM 73.4 °F - 44.6 °F 36% 30.01 in 10.0 mi SE 8.1 mph - N/A   Clear
9:55 PM 73.4 °F - 42.8 °F 33% 30.02 in 10.0 mi SSE 8.1 mph - N/A   Clear
10:15 PM 73.4 °F - 42.8 °F 33% 30.02 in 10.0 mi SSE 8.1 mph - N/A   Clear
10:35 PM 75.2 °F - 41.0 °F 29% 30.02 in 10.0 mi SSE 9.2 mph - N/A   Clear
11:15 PM 73.4 °F - 41.0 °F 31% 30.02 in 10.0 mi SSE 8.1 mph - N/A   Clear
11:35 PM 73.4 °F - 41.0 °F 31% 30.01 in 10.0 mi SSE 6.9 mph - N/A   Clear
11:55 PM 75.2 °F - 41.0 °F 29% 30.01 in 10.0 mi SSE 9.2 mph - N/A   Clear